CW4740 Weather Reports


Display with metric or nautical units.
time (UTC)temp
F
wind
direction
speed
MPH
gust
MPH
rain 1hr
in
rain 24hr
in
rain mn
in
humidity
%
barometer
mb
20260509175141 89 140 7.0 14.0 0.00 0.00 0.00 70 1013.9
20260509174658 88 137 7.0 15.0 0.00 0.00 0.00 73 1013.9
20260509174215 88 176 7.0 15.0 0.00 0.00 0.00 71 1014.2
20260509173751 88 109 8.0 14.0 0.00 0.00 0.00 72 1014.2
20260509173647 88 109 8.0 14.0 0.00 0.00 0.00 72 1014.2
20260509173225 88 139 5.0 18.0 0.00 0.00 0.00 75 1014.2
20260509172638 88 118 7.0 18.0 0.00 0.00 0.00 73 1014.2
20260509172134 88 160 6.0 12.0 0.00 0.00 0.00 74 1014.3
20260509171633 88 102 5.0 14.0 0.00 0.00 0.00 73 1014.3
20260509171210 88 92 9.0 14.0 0.00 0.00 0.00 76 1014.3
20260509170705 88 122 8.0 14.0 0.00 0.00 0.00 75 1014.4
20260509170200 87 142 6.0 17.0 0.00 0.00 0.00 76 1014.4
20260509165644 87 94 8.0 17.0 0.00 0.00 0.00 77 1014.4
20260509165201 87 134 9.0 13.0 0.00 0.00 0.00 76 1014.4
20260509164658 87 109 8.0 15.0 0.00 0.00 0.00 76 1014.6
20260509164135 87 96 9.0 17.0 0.00 0.00 0.00 76 1014.6
20260509163631 87 102 9.0 14.0 0.00 0.00 0.00 75 1014.5
20260509163249 88 129 8.0 14.0 0.00 0.00 0.00 74 1014.6
20260509162643 88 117 5.0 13.0 0.00 0.00 0.00 74 1014.7
20260509162201 89 137 5.0 11.0 0.00 0.00 0.00 72 1014.7
20260509161656 89 128 6.0 12.0 0.00 0.00 0.00 72 1014.9
20260509161132 88 175 6.0 12.0 0.00 0.00 0.00 72 1014.8
20260509160708 89 117 5.0 10.0 0.00 0.00 0.00 73 1014.7
20260509160145 89 132 5.0 10.0 0.00 0.00 0.00 72 1014.8
20260509155633 88 121 4.0 12.0 0.00 0.00 0.00 73 1014.9
20260509155133 88 145 5.0 12.0 0.00 0.00 0.00 71 1015.0
20260509154630 88 154 5.0 13.0 0.00 0.00 0.00 70 1015.0
20260509154128 88 153 7.0 13.0 0.00 0.00 0.00 71 1014.9
20260509153704 87 146 8.0 13.0 0.00 0.00 0.00 73 1015.1
20260509153140 87 138 6.0 13.0 0.00 0.00 0.00 74 1015.1
20260509152637 87 121 6.0 11.0 0.00 0.00 0.00 73 1015.0
20260509152133 87 148 4.0 11.0 0.00 0.00 0.00 73 1015.1
20260509151650 87 133 7.0 11.0 0.00 0.00 0.00 73 1015.0
20260509151248 87 119 5.0 10.0 0.00 0.00 0.00 73 1015.0
20260509151144 87 119 5.0 10.0 0.00 0.00 0.00 73 1015.0
20260509150720 87 115 5.0 9.0 0.00 0.00 0.00 73 1014.9
20260509150134 87 154 3.0 9.0 0.00 0.00 0.00 74 1014.8
20260509145701 87 126 5.0 9.0 0.00 0.00 0.00 75 1014.8
20260509145138 87 144 3.0 8.0 0.00 0.00 0.00 73 1014.8
20260509144736 87 140 4.0 8.0 0.00 0.00 0.00 74 1014.8
20260509144632 87 140 4.0 8.0 0.00 0.00 0.00 74 1014.8
20260509144151 87 142 4.0 10.0 0.00 0.00 0.00 74 1014.7
20260509143708 86 142 4.0 11.0 0.00 0.00 0.00 74 1014.7
20260509143145 86 157 5.0 11.0 0.00 0.00 0.00 74 1014.6
20260509142643 87 152 3.0 7.0 0.00 0.00 0.00 74 1014.6
20260509142140 86 193 2.0 10.0 0.00 0.00 0.00 74 1014.6
20260509141638 86 202 5.0 10.0 0.00 0.00 0.00 73 1014.6
20260509141136 86 128 6.0 11.0 0.00 0.00 0.00 73 1014.5
20260509140652 86 202 5.0 10.0 0.00 0.00 0.00 72 1014.5
20260509140248 86 150 5.0 10.0 0.00 0.00 0.00 73 1014.4
20260509135634 86 121 5.0 12.0 0.00 0.00 0.00 71 1014.4
20260509135131 86 128 3.0 10.0 0.00 0.00 0.00 73 1014.4
20260509134649 86 155 2.0 11.0 0.00 0.00 0.00 74 1014.5
20260509134207 85 184 2.0 11.0 0.00 0.00 0.00 75 1014.5
20260509133644 85 111 4.0 10.0 0.00 0.00 0.00 76 1014.4
20260509133142 84 196 2.0 7.0 0.00 0.00 0.00 78 1014.3
20260509132715 84 196 2.0 7.0 0.00 0.00 0.00 80 1014.3
20260509132150 84 204 3.0 6.0 0.00 0.00 0.00 80 1014.4
20260509131725 83 192 2.0 7.0 0.00 0.00 0.00 83 1014.5
20260509131236 83 138 2.0 7.0 0.00 0.00 0.00 84 1014.5
20260509131132 83 138 2.0 7.0 0.00 0.00 0.00 84 1014.5
20260509130728 83 136 3.0 7.0 0.00 0.00 0.00 85 1014.3
20260509130225 82 134 1.0 4.0 0.00 0.00 0.00 86 1014.3
20260509125650 82 134 2.0 8.0 0.00 0.00 0.00 87 1014.1
20260509125206 81 134 2.0 8.0 0.00 0.00 0.00 88 1014.2
20260509124703 81 134 2.0 5.0 0.00 0.00 0.00 89 1014.2
20260509124220 81 134 3.0 4.0 0.00 0.00 0.00 90 1014.4
20260509123715 80 134 0.0 3.0 0.00 0.00 0.00 91 1014.3
20260509123130 80 134 0.0 3.0 0.00 0.00 0.00 92 1014.3
20260509122648 80 134 0.0 0.0 0.00 0.00 0.00 93 1014.4
20260509122204 79 134 0.0 0.0 0.00 0.00 0.00 93 1014.5
20260509121700 79 134 0.0 0.0 0.00 0.00 0.00 93 1014.4
20260509121137 79 134 0.0 0.0 0.00 0.00 0.00 94 1014.4
20260509120715 78 134 0.0 0.0 0.00 0.00 0.00 95 1014.4
20260509120633 78 134 0.0 0.0 0.00 0.00 0.00 95 1014.4
20260509120229 78 134 0.0 1.0 0.00 0.00 0.00 95 1014.4
20260509115656 78 134 0.0 1.0 0.00 0.00 0.00 95 1014.4
20260509115213 78 134 0.0 0.0 0.00 0.00 0.00 95 1014.5
20260509114744 77 134 0.0 0.0 0.00 0.00 0.00 95 1014.5
20260509114639 77 134 0.0 0.0 0.00 0.00 0.00 95 1014.5
20260509114236 78 134 0.0 0.0 0.00 0.00 0.00 95 1014.4
20260509114132 78 134 0.0 0.0 0.00 0.00 0.00 95 1014.4
20260509113707 77 134 0.0 0.0 0.00 0.00 0.00 96 1014.2
20260509113244 77 134 0.0 0.0 0.00 0.00 0.00 96 1014.3
20260509113201 77 134 0.0 0.0 0.00 0.00 0.00 96 1014.3
20260509112638 77 134 0.0 0.0 0.00 0.00 0.00 95 1014.2
20260509112136 77 134 0.0 0.0 0.00 0.00 0.00 96 1014.2
20260509111654 77 134 0.0 0.0 0.00 0.00 0.00 96 1014.1
20260509111131 77 134 0.0 0.0 0.00 0.00 0.00 96 1014.2
20260509110628 77 134 0.0 0.0 0.00 0.00 0.00 95 1014.2
20260509110127 77 134 0.0 0.0 0.00 0.00 0.00 95 1014.2
20260509105657 77 134 0.0 0.0 0.00 0.00 0.00 95 1014.1
20260509105133 77 134 0.0 0.0 0.00 0.00 0.00 95 1014.1
20260509104711 77 134 0.0 0.0 0.00 0.00 0.00 95 1014.2
20260509104207 77 134 0.0 0.0 0.00 0.00 0.00 95 1014.2
20260509103744 77 134 0.0 0.0 0.00 0.00 0.00 95 1014.2
20260509103702 77 134 0.0 0.0 0.00 0.00 0.00 95 1014.2
20260509103219 77 134 0.0 0.0 0.00 0.00 0.00 95 1014.1
20260509102715 77 134 0.0 0.0 0.00 0.00 0.00 95 1014.0
20260509102633 77 134 0.0 0.0 0.00 0.00 0.00 95 1014.0
20260509102130 77 134 0.0 0.0 0.00 0.00 0.00 95 1014.1
20260509101743 77 134 0.0 0.0 0.00 0.00 0.00 95 1014.1
20260509101158 77 134 0.0 0.0 0.00 0.00 0.00 95 1014.1
20260509100638 77 134 0.0 0.0 0.00 0.00 0.00 95 1014.0
20260509100155 77 134 0.0 0.0 0.00 0.00 0.00 95 1014.1
20260509095641 77 134 0.0 3.0 0.00 0.00 0.00 95 1013.9
20260509095140 77 134 0.0 4.0 0.00 0.00 0.00 94 1013.9
20260509094657 77 134 1.0 4.0 0.00 0.00 0.00 94 1013.9
20260509094134 77 134 0.0 2.0 0.00 0.00 0.00 94 1013.9
20260509093713 77 134 0.0 0.0 0.00 0.00 0.00 94 1013.8
20260509093631 77 134 0.0 0.0 0.00 0.00 0.00 94 1013.8
20260509093245 78 134 0.0 0.0 0.00 0.00 0.00 94 1013.8
20260509093202 78 134 0.0 0.0 0.00 0.00 0.00 94 1013.8
20260509092639 78 134 0.0 0.0 0.00 0.00 0.00 94 1013.8
20260509092158 78 134 0.0 0.0 0.00 0.00 0.00 94 1013.7
20260509091640 78 134 0.0 0.0 0.00 0.00 0.00 94 1013.7
20260509091138 78 134 0.0 3.0 0.00 0.00 0.00 94 1013.7
20260509090717 78 134 1.0 4.0 0.00 0.00 0.00 93 1013.7
20260509090153 78 134 0.0 0.0 0.00 0.00 0.00 93 1013.6
20260509085657 78 134 0.0 0.0 0.00 0.00 0.00 93 1013.7
20260509085138 78 134 0.0 0.0 0.00 0.00 0.00 93 1013.6
20260509084751 78 134 0.0 3.0 0.00 0.00 0.00 93 1013.6
20260509084143 79 134 0.0 3.0 0.00 0.00 0.00 92 1013.5
20260509083720 79 134 1.0 3.0 0.00 0.00 0.00 92 1013.6
20260509083216 79 134 0.0 4.0 0.00 0.00 0.00 92 1013.6
20260509082630 79 134 0.0 5.0 0.00 0.00 0.00 92 1013.6
20260509082207 79 134 1.0 5.0 0.00 0.00 0.00 91 1013.6
20260509081643 79 134 0.0 4.0 0.00 0.00 0.00 91 1013.5
20260509081219 79 134 1.0 4.0 0.00 0.00 0.00 91 1013.6
20260509080633 79 134 2.0 4.0 0.00 0.00 0.00 91 1013.6
20260509080150 79 134 0.0 4.0 0.00 0.00 0.00 90 1013.7
20260509075637 79 134 1.0 4.0 0.00 0.00 0.00 90 1013.6
20260509075135 79 134 1.0 3.0 0.00 0.00 0.00 90 1013.6
20260509074711 79 134 1.0 2.0 0.00 0.00 0.00 90 1013.6
20260509074226 80 134 1.0 2.0 0.00 0.00 0.00 90 1013.6
20260509073641 80 134 0.0 2.0 0.00 0.00 0.00 90 1013.6
20260509073139 80 134 0.0 2.0 0.00 0.00 0.00 90 1013.6
20260509072637 80 134 0.0 3.0 0.00 0.00 0.00 90 1013.6
20260509072155 80 134 1.0 3.0 0.00 0.00 0.00 90 1013.7
20260509071652 80 134 1.0 4.0 0.00 0.00 0.00 90 1013.7
20260509071130 80 134 1.0 4.0 0.00 0.00 0.00 90 1013.7
20260509070728 80 134 1.0 4.0 0.00 0.00 0.00 90 1013.7
20260509070144 80 134 2.0 5.0 0.00 0.00 0.00 89 1013.8
20260509065654 80 134 1.0 5.0 0.00 0.00 0.00 89 1013.9
20260509065130 80 134 1.0 4.0 0.00 0.00 0.00 89 1013.9
20260509064729 80 134 0.0 4.0 0.00 0.00 0.00 89 1014.0
20260509064646 80 134 0.0 4.0 0.00 0.00 0.00 89 1014.0
20260509064144 80 134 2.0 7.0 0.00 0.00 0.00 89 1014.0
20260509063642 80 134 1.0 4.0 0.00 0.00 0.00 89 1013.9
20260509063221 80 134 2.0 5.0 0.00 0.00 0.00 89 1014.0
20260509063138 80 134 2.0 5.0 0.00 0.00 0.00 89 1014.0
20260509062656 80 134 2.0 7.0 0.00 0.00 0.00 89 1014.0
20260509062212 80 134 3.0 7.0 0.00 0.00 0.00 89 1014.1
20260509061647 80 133 2.0 7.0 0.00 0.00 0.00 89 1014.1
20260509061145 80 133 3.0 8.0 0.00 0.00 0.00 90 1014.1
20260509060643 80 133 4.0 8.0 0.00 0.00 0.00 90 1014.1
20260509060221 80 132 3.0 9.0 0.00 0.00 0.00 90 1014.1
20260509055629 80 132 4.0 9.0 0.00 0.00 0.00 90 1014.1
20260509055145 80 127 2.0 10.0 0.00 0.00 0.00 90 1014.2
20260509054643 80 127 3.0 10.0 0.00 0.00 0.00 90 1014.2
20260509054140 80 120 4.0 9.0 0.00 0.00 0.00 90 1014.3
20260509053638 80 119 1.0 8.0 0.00 0.00 0.00 90 1014.3
20260509053215 80 119 2.0 8.0 0.00 0.00 0.00 90 1014.4
20260509053132 80 119 2.0 8.0 0.00 0.00 0.00 90 1014.4
20260509052651 80 117 2.0 8.0 0.00 0.00 0.00 90 1014.5
20260509052248 80 117 4.0 8.0 0.00 0.00 0.00 90 1014.5
20260509051743 80 116 3.0 7.0 0.00 0.00 0.00 90 1014.5
20260509051158 80 116 2.0 8.0 0.00 0.00 0.00 90 1014.5
20260509050654 80 115 4.0 8.0 0.00 0.00 0.00 90 1014.5
20260509050128 80 113 3.0 7.0 0.00 0.00 0.00 90 1014.6
20260509045716 80 113 3.0 9.0 0.00 0.00 0.00 90 1014.6
20260509045151 80 113 3.0 9.0 0.00 0.00 0.00 90 1014.7
20260509044647 80 107 4.0 7.0 0.00 0.00 0.00 90 1014.7
20260509044145 80 107 3.0 7.0 0.00 0.00 0.00 90 1014.7
20260509043643 80 107 4.0 7.0 0.00 0.00 0.00 90 1014.8
20260509043141 80 107 3.0 7.0 0.00 0.00 0.00 90 1014.9
20260509042639 80 107 1.0 7.0 0.00 0.00 0.00 90 1014.9
20260509042217 80 107 2.0 7.0 0.00 0.00 0.00 90 1014.9
20260509041633 80 107 4.0 7.0 0.00 0.00 0.00 89 1014.9
20260509041151 80 106 3.0 7.0 0.00 0.00 0.00 90 1014.9
20260509040707 80 106 3.0 8.0 0.00 0.00 0.00 89 1014.9
20260509040203 80 105 2.0 8.0 0.00 0.00 0.00 90 1014.9
20260509035708 80 105 3.0 7.0 0.00 0.00 0.00 90 1015.0
20260509035142 80 105 3.0 7.0 0.00 0.00 0.00 89 1015.0
20260509034637 80 105 2.0 7.0 0.00 0.00 0.00 89 1015.0
20260509034154 80 105 2.0 7.0 0.00 0.00 0.00 89 1015.0
20260509033631 80 105 4.0 9.0 0.00 0.00 0.00 89 1015.0
20260509033227 80 104 4.0 9.0 0.00 0.00 0.00 89 1015.0
20260509032642 80 101 3.0 6.0 0.00 0.00 0.00 89 1015.1
20260509032158 80 101 3.0 6.0 0.00 0.00 0.00 89 1015.0
20260509031736 80 101 2.0 8.0 0.00 0.00 0.00 89 1015.1
20260509031130 80 101 3.0 7.0 0.00 0.00 0.00 89 1015.2
20260509030709 80 101 2.0 8.0 0.00 0.00 0.00 88 1015.1
20260509030227 80 101 3.0 8.0 0.00 0.00 0.00 88 1015.1
20260509025654 80 101 2.0 6.0 0.00 0.00 0.00 88 1015.2
20260509025130 80 101 1.0 6.0 0.00 0.00 0.00 88 1015.1
20260509024647 80 101 3.0 6.0 0.00 0.00 0.00 88 1015.3
20260509024143 80 101 2.0 6.0 0.00 0.00 0.00 88 1015.2
20260509023659 80 101 2.0 7.0 0.00 0.00 0.00 87 1015.1
20260509023215 80 101 3.0 8.0 0.00 0.00 0.00 87 1015.0
20260509022631 80 100 4.0 10.0 0.00 0.00 0.00 87 1014.9
20260509022128 80 99 5.0 10.0 0.00 0.00 0.00 87 1014.8
20260509021646 80 98 5.0 9.0 0.00 0.00 0.00 87 1014.8
20260509021204 81 98 3.0 8.0 0.00 0.00 0.00 87 1014.8
20260509020641 81 98 2.0 9.0 0.00 0.00 0.00 87 1014.8
20260509020137 81 98 5.0 9.0 0.00 0.00 0.00 86 1014.7
20260509015646 81 97 3.0 8.0 0.00 0.00 0.00 86 1014.7
20260509015204 81 98 3.0 8.0 0.00 0.00 0.00 86 1014.8
20260509014642 81 98 4.0 8.0 0.00 0.00 0.00 86 1014.7
20260509014159 81 97 3.0 7.0 0.00 0.00 0.00 86 1014.5
20260509013633 81 97 3.0 7.0 0.00 0.00 0.00 86 1014.6
20260509013129 81 97 3.0 9.0 0.00 0.00 0.00 86 1014.5
20260509012647 81 98 6.0 9.0 0.00 0.00 0.00 86 1014.4
20260509012145 81 107 3.0 9.0 0.00 0.00 0.00 86 1014.5
20260509011643 81 95 4.0 8.0 0.00 0.00 0.00 86 1014.4
20260509011220 81 91 3.0 8.0 0.00 0.00 0.00 85 1014.4
20260509010637 81 96 4.0 9.0 0.00 0.00 0.00 85 1014.3
20260509010135 81 96 5.0 9.0 0.00 0.00 0.00 85 1014.1
20260509005644 81 93 5.0 9.0 0.00 0.00 0.00 85 1014.0
20260509005142 81 88 5.0 9.0 0.00 0.00 0.00 85 1014.0
20260509004641 81 84 5.0 9.0 0.00 0.00 0.00 85 1013.8
20260509004219 81 95 4.0 9.0 0.00 0.00 0.00 85 1013.7
20260509004137 81 95 4.0 9.0 0.00 0.00 0.00 85 1013.7
20260509003655 81 87 3.0 9.0 0.00 0.00 0.00 85 1013.7
20260509003151 81 86 3.0 9.0 0.00 0.00 0.00 85 1013.6
20260509002649 81 93 3.0 9.0 0.00 0.00 0.00 84 1013.5
20260509002145 81 92 5.0 9.0 0.00 0.00 0.00 84 1013.3
20260509001703 81 103 6.0 11.0 0.00 0.00 0.00 84 1013.4
20260509001219 81 105 7.0 11.0 0.00 0.00 0.00 84 1013.3
20260509000655 81 97 3.0 9.0 0.00 0.00 0.00 84 1013.5
20260509000131 82 96 4.0 9.0 0.00 0.00 0.00 83 1013.3
20260508235640 81 92 3.0 8.0 0.00 0.00 0.00 84 1013.3
20260508235137 81 92 4.0 8.0 0.00 0.00 0.00 83 1013.3
20260508234655 81 92 2.0 9.0 0.00 0.00 0.00 83 1013.4
20260508234153 82 88 4.0 8.0 0.00 0.00 0.00 83 1013.4
20260508233648 82 96 3.0 10.0 0.00 0.00 0.00 83 1013.4
20260508233205 82 96 5.0 10.0 0.00 0.00 0.00 83 1013.3
20260508232722 82 111 7.0 10.0 0.00 0.00 0.00 82 1013.2
20260508232138 82 105 5.0 10.0 0.00 0.00 0.00 83 1013.2
20260508231635 82 98 6.0 10.0 0.00 0.00 0.00 81 1013.3
20260508231133 82 96 6.0 9.0 0.00 0.00 0.00 82 1013.4
20260508230712 82 111 4.0 9.0 0.00 0.00 0.00 82 1013.2
20260508230208 82 92 4.0 9.0 0.00 0.00 0.00 82 1013.2
20260508225636 82 98 5.0 12.0 0.00 0.00 0.00 82 1013.2
20260508225214 82 114 6.0 11.0 0.00 0.00 0.00 81 1013.2
20260508224729 83 116 7.0 13.0 0.00 0.00 0.00 82 1013.1
20260508224225 83 84 8.0 13.0 0.00 0.00 0.00 81 1013.1
20260508223720 83 103 6.0 12.0 0.00 0.00 0.00 81 1012.9
20260508223234 83 59 7.0 12.0 0.00 0.00 0.00 80 1012.9
20260508222723 83 76 5.0 11.0 0.00 0.00 0.00 80 1013.0
20260508222141 83 87 5.0 12.0 0.00 0.00 0.00 81 1012.9
20260508221713 83 120 5.0 12.0 0.00 0.00 0.00 81 1012.9
20260508221146 83 99 7.0 12.0 0.00 0.00 0.00 81 1012.9
20260508220702 83 108 5.0 12.0 0.00 0.00 0.00 81 1012.9
20260508220138 83 90 5.0 11.0 0.00 0.00 0.00 81 1013.0
20260508215748 83 97 7.0 13.0 0.00 0.00 0.00 82 1013.1
20260508215644 83 97 7.0 13.0 0.00 0.00 0.00 82 1013.1
20260508215220 83 99 9.0 13.0 0.00 0.00 0.00 81 1013.2
20260508214636 83 90 9.0 12.0 0.00 0.00 0.00 80 1013.2
20260508214233 83 70 6.0 12.0 0.00 0.00 0.00 80 1013.2
20260508213708 83 51 8.0 13.0 0.00 0.00 0.00 80 1013.2
20260508213204 83 113 6.0 13.0 0.00 0.00 0.00 80 1013.2
20260508212700 83 85 6.0 13.0 0.00 0.00 0.00 81 1013.3
20260508212157 83 59 7.0 14.0 0.00 0.00 0.00 79 1013.3
20260508211715 84 73 7.0 14.0 0.00 0.00 0.00 80 1013.2
20260508211132 84 113 8.0 15.0 0.00 0.00 0.00 79 1013.3
20260508210630 84 76 7.0 15.0 0.00 0.00 0.00 79 1013.3
20260508210207 84 98 6.0 14.0 0.00 0.00 0.00 79 1013.3
20260508205654 84 103 6.0 14.0 0.00 0.00 0.00 78 1013.1
20260508205211 84 93 8.0 13.0 0.00 0.00 0.00 78 1013.2
20260508204725 84 106 6.0 13.0 0.00 0.00 0.00 77 1013.2
20260508204200 85 96 7.0 13.0 0.00 0.00 0.00 74 1013.3
20260508203636 84 69 6.0 14.0 0.00 0.00 0.00 73 1013.4
20260508203134 85 126 7.0 14.0 0.00 0.00 0.00 73 1013.5
20260508202653 85 90 5.0 12.0 0.00 0.00 0.00 73 1013.5
20260508202130 85 97 6.0 12.0 0.00 0.00 0.00 71 1013.5
20260508201706 85 78 6.0 13.0 0.00 0.00 0.00 74 1013.6
20260508201144 85 112 8.0 13.0 0.00 0.00 0.00 73 1013.8
20260508200642 85 88 6.0 12.0 0.00 0.00 0.00 74 1013.9
20260508200159 85 78 6.0 12.0 0.00 0.00 0.00 72 1014.0
20260508195646 85 66 4.0 12.0 0.00 0.00 0.00 75 1014.0
20260508195144 85 84 6.0 12.0 0.00 0.00 0.00 74 1014.3
20260508194643 85 97 9.0 14.0 0.00 0.00 0.00 73 1014.3
20260508194140 85 78 5.0 14.0 0.00 0.00 0.00 73 1014.4
20260508193638 85 109 5.0 12.0 0.00 0.00 0.00 74 1014.3
20260508193136 85 86 6.0 15.0 0.00 0.00 0.00 75 1014.5
20260508192654 85 69 8.0 15.0 0.00 0.00 0.00 74 1014.3
20260508192130 85 86 5.0 10.0 0.00 0.00 0.00 75 1014.4
20260508191647 85 84 5.0 13.0 0.00 0.00 0.00 75 1014.6
20260508191145 85 54 8.0 14.0 0.00 0.00 0.00 76 1014.5
20260508190704 85 102 7.0 15.0 0.00 0.00 0.00 75 1014.5
20260508190141 85 80 7.0 12.0 0.00 0.00 0.00 74 1014.5
20260508185648 85 115 4.0 12.0 0.00 0.00 0.00 74 1014.7
20260508185128 85 82 6.0 12.0 0.00 0.00 0.00 75 1014.7
20260508184741 85 55 5.0 12.0 0.00 0.00 0.00 72 1014.6
20260508184658 85 55 5.0 12.0 0.00 0.00 0.00 72 1014.6
20260508184154 85 88 5.0 11.0 0.00 0.00 0.00 73 1014.7
20260508183711 85 83 3.0 13.0 0.00 0.00 0.00 75 1014.7
20260508183206 85 105 7.0 13.0 0.00 0.00 0.00 73 1014.7
20260508182643 86 114 5.0 11.0 0.00 0.00 0.00 74 1014.8
20260508182140 85 14 4.0 11.0 0.00 0.00 0.00 74 1014.9
20260508181717 85 9 6.0 11.0 0.00 0.00 0.00 72 1014.9
20260508181635 85 9 6.0 11.0 0.00 0.00 0.00 72 1014.9
20260508181132 85 70 5.0 13.0 0.00 0.00 0.00 70 1015.1
20260508180729 85 51 5.0 13.0 0.00 0.00 0.00 71 1015.1
20260508180647 85 51 5.0 13.0 0.00 0.00 0.00 71 1015.1
20260508180225 85 78 6.0 10.0 0.00 0.00 0.00 71 1015.1
20260508175712 86 75 6.0 10.0 0.00 0.00 0.00 70 1015.1